Latest METARs, TAFs and NOTAMs for LCLK


---------------------------------------------------------------------------
	(OBSERVATIONS)
LCLK 212230Z 30004KT 9999 FEW025 10/10 Q1011 NOSIG=
LCLK 212200Z 31005KT 9999 FEW025CB 10/10 Q1011 NOSIG=
LCLK 212130Z 32005KT 9999 FEW025CB 11/11 Q1011 NOSIG=
LCLK 212100Z 30003KT 9999 FEW025CB 10/10 Q1011 NOSIG=
LCLK 212030Z 32004KT CAVOK 11/11 Q1011 NOSIG=
LCLK 212000Z 31005KT CAVOK 11/11 Q1011 NOSIG=
---------------------------------------------------------------------------
	(FC)
Sorry, FC For LCLK Not Found
---------------------------------------------------------------------------
	(TERMINAL AREA FORECAST)
LCLK 211730Z 2118/2218 33006KT 9999 FEW025
    BECMG 2207/2211 12011KT
    BECMG 2215/2218 32006KT=
---------------------------------------------------------------------------
	(NOTAMS)


LCLK A0016/10 THERE ARE FREQUENT REPORTS OF LASER LIGHTS DIRECTED
    AT ACFT MOSTLY FROM THE FOLLOWING AREAS: 1.ON ARRIVALS FROM
    NW WITHIN OF 20NM FROM AD 2.ON LETDOWN PROCEDURES RWY22 AIRCREW
    SHALL BE VIGILANT TO SUCH EVENTS AND REPORT THEM TO ATC PASSING
    WHERE POSSIBLE INFO AS TO THE LOCATION. 12 JAN 09:27 2010
    UNTIL PERM. CREATED: 12 JAN 09:37 2010

LCLK A0040/18 RWY GUARD LIGHTS LOCATED ON TWY E ARE U/S. 11 JAN
    08:00 2018 UNTIL 28 FEB 22:00 2018 ESTIMATED. CREATED: 11
    JAN 08:29 2018

LCLK A0110/12 NEW HELIPAD FOR CYPRUS POLICE USE ONLY ESTABLISHED
    250 METERS NORTH OF THE ATC TOWER ENCLOSED BY THE FOLLOWING
    COORDINATES: 3452.502N03337.012E 3452.528N03337.013E 3452.518N03337.185E
    3452.465N03337.118E HOURS OF OPERATION: H24. 08 FEB 14:53
    2012 UNTIL PERM. CREATED: 08 FEB 15:02 2012

LCLK A0121/18 RWY 04/22 CLOSED DUE TO WIP. SAT 2100 - SUN 0030,
    03 FEB 21:00 2018 UNTIL 25 FEB 00:30 2018. CREATED: 31 JAN
    08:02 2018

LCLK A0198/18 TWY L CLOSED FROM INTERMEDIATE HOLDING PSN L4-L5
    DUE TO WIP. 22 FEB 06:00 2018 UNTIL 22 FEB 09:00 2018. CREATED:
    21 FEB 18:27 2018

LCLK A0694/12 OBSTACLE ERECTED TYPE: ANTENNA COORDINATES: 345228.69N0333700.25E
    ELEVATION AT TOP: 39.5M AMSL MARKED AND LIGHTED (RED. 16
    AUG 18:42 2012 UNTIL PERM. CREATED: 16 AUG 18:46 2012

LCLK A0695/12 OBSTACLE ERECTED TYPE: WIND MEASUREMENT MAST COORDINATES:
    345227N 0333110E HEIGHT : 50M AGL ELAVATION AT TOP : 240M
    AMSL MARKED AND LIGHTED. 16 AUG 18:48 2012 UNTIL PERM. CREATED:
    16 AUG 18:50 2012

LCLK A0762/15 OBSTACLE ERECTED NAME: LC-0005CR TYPE: CRANE COORDINATES:
    345554.27N0333814.51E HEIGHT: 65.5M AGL ELEVATION AT TOP:
    71M AMSL MARKED AND LIGHTED. 24 JUN 07:35 2015 UNTIL PERM.
    CREATED: 24 JUN 07:40 2015

LCLK A0924/15 FOR FLIGHT PLANNING PURPOSES ALL ARRIVALS TO LCA
    ENTERING NICOSIA FIR VIA TOSKA, EVENO, TOMBI MUST ROUTE TO
    BONEK FOR THE BONEK1A ARRIVAL. ALL OTHER STARS AVAILABLE
    ONLY BY ATC. 31 JUL 00:01 2015 UNTIL PERM. CREATED: 30 JUL
    11:29 2015

LCLK A1180/14 OBSTACLE ERECTED TYPE: ANTENNA COORDINATES: 345330.64N0333816.55E
    HEIGHT:28.69M AGL ELEVATION AT TOP: 31.25M AMSL MARKED AND
    LIGHTED (RED. 13 NOV 05:00 2014 UNTIL PERM. CREATED: 11 NOV
    11:52 2014

LCLK A1197/14 FOR FLIGHT PLANNING PURPOSES ALL DEPARTURES LCA
    RWY22 EXITING NICOSIA FIR VIA TOSKA, EVENO, TOMBI MUST ROUTE:
    1. PAFOS 2B PHA DCT GENOS DCT TOSKA 2. PAFOS 2B PHA DCT GENOS
    DCT PEDER DCT EVENO 3. PAFOS 2B PHA DCT GENOS DCT PEDER A16/UA16
    TOMBI ALL OTHER SIDS ONLY AVAILABLE BY ATC. 13 NOV 13:58
    2014 UNTIL PERM. CREATED: 13 NOV 13:59 2014

LCLK A1235/14 A GROUP OF FOUR (4) CRANES ERECTED AT LARNAKA PORT
    AT THE FOLLOWING POSITIONS: 345542.50N0333839.08E HEIGHT
    47M AT THE TOP 49.3M AMSL NOT LIGHTED 345529.26N0333840.08E
    HEIGHT 84M AT THE TOP 86.3M AMSL LIGHTED 345525.08N0333830.27E
    HEIGHT 84M AT THE TOP 86.3M AMSL LIGHTED 345526.30N0333829.02E
    HEIGHT 50M AT THE TOP 52.3M AMSL LIGHTED. 26 NOV 11:46 2014
    UNTIL PERM. CREATED: 26 NOV 11:48 2014

LCLK A1627/17 OBSTACLE ERECTED TYPE: CRANE COORDINATES: 345406.34N0333812.87E
    HEIGHT: 48M AGL ELEVATION AT TOP: 50M AMSL MARKED,LIGHTED.
    10 NOV 09:45 2017 UNTIL PERM. CREATED: 10 NOV 09:47 2017

---------------------------------------------------------------------------